Year,Month,Day,Hour,Minute,Value (Times are PST for insolation in W/m^2)
2018,11,02,00,00,0.00
2018,11,02,00,01,0.00
2018,11,02,00,02,0.00
2018,11,02,00,03,0.00
2018,11,02,00,04,0.00
2018,11,02,00,05,0.00
2018,11,02,00,06,0.00
2018,11,02,00,07,0.00
2018,11,02,00,08,0.00
2018,11,02,00,09,0.00
2018,11,02,00,10,0.00
2018,11,02,00,11,0.00
2018,11,02,00,12,0.00
2018,11,02,00,13,0.00
2018,11,02,00,14,0.00
2018,11,02,00,15,0.00
2018,11,02,00,16,0.00
2018,11,02,00,17,0.00
2018,11,02,00,18,0.00
2018,11,02,00,19,0.00
2018,11,02,00,20,0.00
2018,11,02,00,21,0.00
2018,11,02,00,22,0.00
2018,11,02,00,23,0.00
2018,11,02,00,24,0.00
2018,11,02,00,25,0.00
2018,11,02,00,26,0.00
2018,11,02,00,27,0.00
2018,11,02,00,28,0.00
2018,11,02,00,29,0.00
2018,11,02,00,30,0.00
2018,11,02,00,31,0.00
2018,11,02,00,32,0.00
2018,11,02,00,33,0.00
2018,11,02,00,34,0.00
2018,11,02,00,35,0.00
2018,11,02,00,36,0.00
2018,11,02,00,37,0.00
2018,11,02,00,38,0.00
2018,11,02,00,39,0.00
2018,11,02,00,40,0.00
2018,11,02,00,41,0.00
2018,11,02,00,42,0.00
2018,11,02,00,43,0.00
2018,11,02,00,44,0.00
2018,11,02,00,45,0.00
2018,11,02,00,46,0.00
2018,11,02,00,47,0.00
2018,11,02,00,48,0.00
2018,11,02,00,49,0.00
2018,11,02,00,50,0.00
2018,11,02,00,51,0.00
2018,11,02,00,52,0.00
2018,11,02,00,53,0.00
2018,11,02,00,54,0.00
2018,11,02,00,55,0.00
2018,11,02,00,56,0.00
2018,11,02,00,57,0.00
2018,11,02,00,58,0.00
2018,11,02,00,59,0.00
2018,11,02,01,00,0.00
2018,11,02,01,01,0.00
2018,11,02,01,02,0.00
2018,11,02,01,03,0.00
2018,11,02,01,04,0.00
2018,11,02,01,05,0.00
2018,11,02,01,06,0.00
2018,11,02,01,07,0.00
2018,11,02,01,08,0.00
2018,11,02,01,09,0.00
2018,11,02,01,10,0.00
2018,11,02,01,11,0.00
2018,11,02,01,12,0.00
2018,11,02,01,13,0.00
2018,11,02,01,14,0.00
2018,11,02,01,15,0.00
2018,11,02,01,16,0.00
2018,11,02,01,17,0.00
2018,11,02,01,18,0.00
2018,11,02,01,19,0.00
2018,11,02,01,20,0.00
2018,11,02,01,21,0.00
2018,11,02,01,22,0.00
2018,11,02,01,23,0.00
2018,11,02,01,24,0.00
2018,11,02,01,25,0.00
2018,11,02,01,26,0.00
2018,11,02,01,27,0.00
2018,11,02,01,28,0.00
2018,11,02,01,29,0.00
2018,11,02,01,30,0.00
2018,11,02,01,31,0.00
2018,11,02,01,32,0.00
2018,11,02,01,33,0.00
2018,11,02,01,34,0.00
2018,11,02,01,35,0.00
2018,11,02,01,36,0.00
2018,11,02,01,37,0.00
2018,11,02,01,38,0.00
2018,11,02,01,39,0.00
2018,11,02,01,40,0.00
2018,11,02,01,41,0.00
2018,11,02,01,42,0.00
2018,11,02,01,43,0.00
2018,11,02,01,44,0.00
2018,11,02,01,45,0.00
2018,11,02,01,46,0.00
2018,11,02,01,47,0.00
2018,11,02,01,48,0.00
2018,11,02,01,49,0.00
2018,11,02,01,50,0.00
2018,11,02,01,51,0.00
2018,11,02,01,52,0.00
2018,11,02,01,53,0.00
2018,11,02,01,54,0.00
2018,11,02,01,55,0.00
2018,11,02,01,56,0.00
2018,11,02,01,57,0.00
2018,11,02,01,58,0.00
2018,11,02,01,59,0.00
2018,11,02,02,00,0.00
2018,11,02,02,01,0.00
2018,11,02,02,02,0.00
2018,11,02,02,03,0.00
2018,11,02,02,04,0.00
2018,11,02,02,05,0.00
2018,11,02,02,06,0.00
2018,11,02,02,07,0.00
2018,11,02,02,08,0.00
2018,11,02,02,09,0.00
2018,11,02,02,10,0.00
2018,11,02,02,11,0.00
2018,11,02,02,12,0.00
2018,11,02,02,13,0.00
2018,11,02,02,14,0.00
2018,11,02,02,15,0.00
2018,11,02,02,16,0.00
2018,11,02,02,17,0.00
2018,11,02,02,18,0.00
2018,11,02,02,19,0.00
2018,11,02,02,20,0.00
2018,11,02,02,21,0.00
2018,11,02,02,22,0.00
2018,11,02,02,23,0.00
2018,11,02,02,24,0.00
2018,11,02,02,25,0.00
2018,11,02,02,26,0.00
2018,11,02,02,27,0.00
2018,11,02,02,28,0.00
2018,11,02,02,29,0.00
2018,11,02,02,30,0.00
2018,11,02,02,31,0.00
2018,11,02,02,32,0.00
2018,11,02,02,33,0.00
2018,11,02,02,34,0.00
2018,11,02,02,35,0.00
2018,11,02,02,36,0.00
2018,11,02,02,37,0.00
2018,11,02,02,38,0.00
2018,11,02,02,39,0.00
2018,11,02,02,40,0.00
2018,11,02,02,41,0.00
2018,11,02,02,42,0.00
2018,11,02,02,43,0.00
2018,11,02,02,44,0.00
2018,11,02,02,45,0.00
2018,11,02,02,46,0.00
2018,11,02,02,47,0.00
2018,11,02,02,48,0.00
2018,11,02,02,49,0.00
2018,11,02,02,50,0.00
2018,11,02,02,51,0.00
2018,11,02,02,52,0.00
2018,11,02,02,53,0.00
2018,11,02,02,54,0.00
2018,11,02,02,55,0.00
2018,11,02,02,56,0.00
2018,11,02,02,57,0.00
2018,11,02,02,58,0.00
2018,11,02,02,59,0.00
2018,11,02,03,00,0.00
2018,11,02,03,01,0.00
2018,11,02,03,02,0.00
2018,11,02,03,03,0.00
2018,11,02,03,04,0.00
2018,11,02,03,05,0.00
2018,11,02,03,06,0.00
2018,11,02,03,07,0.00
2018,11,02,03,08,0.00
2018,11,02,03,09,0.00
2018,11,02,03,10,0.00
2018,11,02,03,11,0.00
2018,11,02,03,12,0.00
2018,11,02,03,13,0.00
2018,11,02,03,14,0.00
2018,11,02,03,15,0.00
2018,11,02,03,16,0.00
2018,11,02,03,17,0.00
2018,11,02,03,18,0.00
2018,11,02,03,19,0.00
2018,11,02,03,20,0.00
2018,11,02,03,21,0.00
2018,11,02,03,22,0.00
2018,11,02,03,23,0.00
2018,11,02,03,24,0.00
2018,11,02,03,25,0.00
2018,11,02,03,26,0.00
2018,11,02,03,27,0.00
2018,11,02,03,28,0.00
2018,11,02,03,29,0.00
2018,11,02,03,30,0.00
2018,11,02,03,31,0.00
2018,11,02,03,32,0.00
2018,11,02,03,33,0.00
2018,11,02,03,34,0.00
2018,11,02,03,35,0.00
2018,11,02,03,36,0.00
2018,11,02,03,37,0.00
2018,11,02,03,38,0.00
2018,11,02,03,39,0.00
2018,11,02,03,40,0.00
2018,11,02,03,41,0.00
2018,11,02,03,42,0.00
2018,11,02,03,43,0.00
2018,11,02,03,44,0.00
2018,11,02,03,45,0.00
2018,11,02,03,46,0.00
2018,11,02,03,47,0.00
2018,11,02,03,48,0.00
2018,11,02,03,49,0.00
2018,11,02,03,50,0.00
2018,11,02,03,51,0.00
2018,11,02,03,52,0.00
2018,11,02,03,53,0.00
2018,11,02,03,54,0.00
2018,11,02,03,55,0.00
2018,11,02,03,56,0.00
2018,11,02,03,57,0.00
2018,11,02,03,58,0.00
2018,11,02,03,59,0.00
2018,11,02,04,00,0.00
2018,11,02,04,01,0.00
2018,11,02,04,02,0.00
2018,11,02,04,03,0.00
2018,11,02,04,04,0.00
2018,11,02,04,05,0.00
2018,11,02,04,06,0.00
2018,11,02,04,07,0.00
2018,11,02,04,08,0.00
2018,11,02,04,09,0.00
2018,11,02,04,10,0.00
2018,11,02,04,11,0.00
2018,11,02,04,12,0.00
2018,11,02,04,13,0.00
2018,11,02,04,14,0.00
2018,11,02,04,15,0.00
2018,11,02,04,16,0.00
2018,11,02,04,17,0.00
2018,11,02,04,18,0.00
2018,11,02,04,19,0.00
2018,11,02,04,20,0.00
2018,11,02,04,21,0.00
2018,11,02,04,22,0.00
2018,11,02,04,23,0.00
2018,11,02,04,24,0.00
2018,11,02,04,25,0.00
2018,11,02,04,26,0.00
2018,11,02,04,27,0.00
2018,11,02,04,28,0.00
2018,11,02,04,29,0.00
2018,11,02,04,30,0.00
2018,11,02,04,31,0.00
2018,11,02,04,32,0.00
2018,11,02,04,33,0.00
2018,11,02,04,34,0.00
2018,11,02,04,35,0.00
2018,11,02,04,36,0.00
2018,11,02,04,37,0.00
2018,11,02,04,38,0.00
2018,11,02,04,39,0.00
2018,11,02,04,40,0.00
2018,11,02,04,41,0.00
2018,11,02,04,42,0.00
2018,11,02,04,43,0.00
2018,11,02,04,44,0.00
2018,11,02,04,45,0.00
2018,11,02,04,46,0.00
2018,11,02,04,47,0.00
2018,11,02,04,48,0.00
2018,11,02,04,49,0.00
2018,11,02,04,50,0.00
2018,11,02,04,51,0.00
2018,11,02,04,52,0.00
2018,11,02,04,53,0.00
2018,11,02,04,54,0.00
2018,11,02,04,55,0.00
2018,11,02,04,56,0.00
2018,11,02,04,57,0.00
2018,11,02,04,58,0.00
2018,11,02,04,59,0.00
2018,11,02,05,00,0.00
2018,11,02,05,01,0.00
2018,11,02,05,02,0.00
2018,11,02,05,03,0.00
2018,11,02,05,04,0.00
2018,11,02,05,05,0.00
2018,11,02,05,06,0.00
2018,11,02,05,07,0.00
2018,11,02,05,08,0.00
2018,11,02,05,09,0.00
2018,11,02,05,10,0.00
2018,11,02,05,11,0.00
2018,11,02,05,12,0.00
2018,11,02,05,13,0.00
2018,11,02,05,14,0.00
2018,11,02,05,15,0.00
2018,11,02,05,16,0.00
2018,11,02,05,17,0.00
2018,11,02,05,18,0.00
2018,11,02,05,19,0.00
2018,11,02,05,20,0.00
2018,11,02,05,21,0.00
2018,11,02,05,22,0.00
2018,11,02,05,23,0.00
2018,11,02,05,24,0.00
2018,11,02,05,25,0.00
2018,11,02,05,26,0.00
2018,11,02,05,27,0.00
2018,11,02,05,28,0.00
2018,11,02,05,29,0.00
2018,11,02,05,30,0.00
2018,11,02,05,31,0.00
2018,11,02,05,32,0.00
2018,11,02,05,33,0.00
2018,11,02,05,34,0.00
2018,11,02,05,35,0.00
2018,11,02,05,36,0.00
2018,11,02,05,37,0.00
2018,11,02,05,38,0.00
2018,11,02,05,39,0.00
2018,11,02,05,40,0.00
2018,11,02,05,41,0.00
2018,11,02,05,42,0.00
2018,11,02,05,43,0.00
2018,11,02,05,44,0.00
2018,11,02,05,45,0.00
2018,11,02,05,46,0.00
2018,11,02,05,47,0.00
2018,11,02,05,48,0.00
2018,11,02,05,49,0.00
2018,11,02,05,50,0.00
2018,11,02,05,51,0.00
2018,11,02,05,52,0.00
2018,11,02,05,53,0.00
2018,11,02,05,54,0.00
2018,11,02,05,55,0.00
2018,11,02,05,56,0.00
2018,11,02,05,57,0.00
2018,11,02,05,58,0.00
2018,11,02,05,59,0.00
2018,11,02,06,00,0.00
2018,11,02,06,01,0.00
2018,11,02,06,02,0.00
2018,11,02,06,03,0.00
2018,11,02,06,04,0.00
2018,11,02,06,05,0.00
2018,11,02,06,06,0.00
2018,11,02,06,07,0.00
2018,11,02,06,08,0.00
2018,11,02,06,09,0.00
2018,11,02,06,10,0.00
2018,11,02,06,11,0.00
2018,11,02,06,12,0.00
2018,11,02,06,13,0.00
2018,11,02,06,14,0.00
2018,11,02,06,15,0.00
2018,11,02,06,16,0.00
2018,11,02,06,17,0.00
2018,11,02,06,18,0.00
2018,11,02,06,19,0.00
2018,11,02,06,20,0.00
2018,11,02,06,21,0.00
2018,11,02,06,22,0.00
2018,11,02,06,23,0.00
2018,11,02,06,24,0.00
2018,11,02,06,25,0.00
2018,11,02,06,26,0.00
2018,11,02,06,27,0.00
2018,11,02,06,28,0.00
2018,11,02,06,29,0.00
2018,11,02,06,30,0.00
2018,11,02,06,31,0.00
2018,11,02,06,32,0.00
2018,11,02,06,33,0.00
2018,11,02,06,34,0.00
2018,11,02,06,35,0.00
2018,11,02,06,36,0.00
2018,11,02,06,37,0.00
2018,11,02,06,38,0.00
2018,11,02,06,39,0.00
2018,11,02,06,40,0.00
2018,11,02,06,41,0.00
2018,11,02,06,42,0.00
2018,11,02,06,43,0.00
2018,11,02,06,44,0.00
2018,11,02,06,45,0.00
2018,11,02,06,46,0.00
2018,11,02,06,47,0.00
2018,11,02,06,48,0.00
2018,11,02,06,49,0.00
2018,11,02,06,50,0.00
2018,11,02,06,51,0.00
2018,11,02,06,52,0.00
2018,11,02,06,53,0.00
2018,11,02,06,54,0.00
2018,11,02,06,55,0.00
2018,11,02,06,56,0.00
2018,11,02,06,57,0.00
2018,11,02,06,58,0.00
2018,11,02,06,59,0.00
2018,11,02,07,00,0.00
2018,11,02,07,01,0.00
2018,11,02,07,02,0.00
2018,11,02,07,03,0.00
2018,11,02,07,04,0.00
2018,11,02,07,05,0.00
2018,11,02,07,06,0.00
2018,11,02,07,07,0.00
2018,11,02,07,08,0.00
2018,11,02,07,09,0.00
2018,11,02,07,10,0.00
2018,11,02,07,11,0.00
2018,11,02,07,12,0.00
2018,11,02,07,13,0.00
2018,11,02,07,14,0.00
2018,11,02,07,15,0.00
2018,11,02,07,16,0.00
2018,11,02,07,17,0.00
2018,11,02,07,18,0.00
2018,11,02,07,19,0.00
2018,11,02,07,20,0.00
2018,11,02,07,21,0.00
2018,11,02,07,22,0.00
2018,11,02,07,23,0.00
2018,11,02,07,24,0.00
2018,11,02,07,25,0.00
2018,11,02,07,26,0.00
2018,11,02,07,27,0.00
2018,11,02,07,28,0.00
2018,11,02,07,29,0.00
2018,11,02,07,30,0.00
2018,11,02,07,31,0.00
2018,11,02,07,32,0.00
2018,11,02,07,33,0.00
2018,11,02,07,34,0.00
2018,11,02,07,35,0.00
2018,11,02,07,36,0.00
2018,11,02,07,37,0.00
2018,11,02,07,38,0.00
2018,11,02,07,39,0.00
2018,11,02,07,40,0.00
2018,11,02,07,41,0.00
2018,11,02,07,42,0.00
2018,11,02,07,43,0.00
2018,11,02,07,44,0.00
2018,11,02,07,45,0.00
2018,11,02,07,46,0.00
2018,11,02,07,47,0.00
2018,11,02,07,48,0.00
2018,11,02,07,49,0.00
2018,11,02,07,50,0.00
2018,11,02,07,51,0.00
2018,11,02,07,52,0.00
2018,11,02,07,53,0.00
2018,11,02,07,54,0.00
2018,11,02,07,55,0.00
2018,11,02,07,56,0.00
2018,11,02,07,57,0.00
2018,11,02,07,58,0.00
2018,11,02,07,59,0.00
2018,11,02,08,00,0.00
2018,11,02,08,01,0.00
2018,11,02,08,02,0.00
2018,11,02,08,03,0.00
2018,11,02,08,04,0.00
2018,11,02,08,05,0.00
2018,11,02,08,06,0.00
2018,11,02,08,07,0.00
2018,11,02,08,08,0.00
2018,11,02,08,09,0.00
2018,11,02,08,10,0.00
2018,11,02,08,11,0.00
2018,11,02,08,12,0.00
2018,11,02,08,13,0.00
2018,11,02,08,14,0.00
2018,11,02,08,15,0.00
2018,11,02,08,16,0.00
2018,11,02,08,17,0.00
2018,11,02,08,18,0.00
2018,11,02,08,19,1.30
2018,11,02,08,20,5.00
2018,11,02,08,21,5.00
2018,11,02,08,22,5.00
2018,11,02,08,23,5.00
2018,11,02,08,24,5.00
2018,11,02,08,25,5.00
2018,11,02,08,26,5.00
2018,11,02,08,27,5.00
2018,11,02,08,28,5.00
2018,11,02,08,29,5.00
2018,11,02,08,30,5.00
2018,11,02,08,31,5.10
2018,11,02,08,32,7.00
2018,11,02,08,33,7.00
2018,11,02,08,34,7.00
2018,11,02,08,35,7.00
2018,11,02,08,36,7.00
2018,11,02,08,37,7.00
2018,11,02,08,38,7.00
2018,11,02,08,39,7.00
2018,11,02,08,40,7.00
2018,11,02,08,41,7.00
2018,11,02,08,42,7.00
2018,11,02,08,43,7.00
2018,11,02,08,44,7.00
2018,11,02,08,45,7.00
2018,11,02,08,46,7.00
2018,11,02,08,47,7.00
2018,11,02,08,48,7.80
2018,11,02,08,49,9.00
2018,11,02,08,50,9.00
2018,11,02,08,51,9.00
2018,11,02,08,52,9.00
2018,11,02,08,53,9.00
2018,11,02,08,54,9.00
2018,11,02,08,55,9.00
2018,11,02,08,56,9.00
2018,11,02,08,57,9.00
2018,11,02,08,58,9.00
2018,11,02,08,59,9.00
2018,11,02,09,00,9.00
2018,11,02,09,01,9.50
2018,11,02,09,02,11.00
2018,11,02,09,03,11.00
2018,11,02,09,04,11.00
2018,11,02,09,05,11.00
2018,11,02,09,06,11.00
2018,11,02,09,07,11.00
2018,11,02,09,08,11.00
2018,11,02,09,09,11.00
2018,11,02,09,10,11.00
2018,11,02,09,11,11.00
2018,11,02,09,12,11.00
2018,11,02,09,13,11.00
2018,11,02,09,14,11.00
2018,11,02,09,15,11.00
2018,11,02,09,16,11.00
2018,11,02,09,17,11.00
2018,11,02,09,18,11.00
2018,11,02,09,19,11.00
2018,11,02,09,20,11.90
2018,11,02,09,21,12.00
2018,11,02,09,22,12.00
2018,11,02,09,23,12.00
2018,11,02,09,24,12.00
2018,11,02,09,25,12.00
2018,11,02,09,26,12.00
2018,11,02,09,27,12.00
2018,11,02,09,28,12.00
2018,11,02,09,29,12.00
2018,11,02,09,30,12.00
2018,11,02,09,31,12.00
2018,11,02,09,32,12.00
2018,11,02,09,33,12.00
2018,11,02,09,34,12.00
2018,11,02,09,35,14.00
2018,11,02,09,36,14.00
2018,11,02,09,37,14.00
2018,11,02,09,38,14.00
2018,11,02,09,39,14.00
2018,11,02,09,40,14.00
2018,11,02,09,41,14.00
2018,11,02,09,42,14.00
2018,11,02,09,43,14.00
2018,11,02,09,44,14.00
2018,11,02,09,45,14.00
2018,11,02,09,46,14.00
2018,11,02,09,47,14.00
2018,11,02,09,48,14.00
2018,11,02,09,49,14.00
2018,11,02,09,50,14.00
2018,11,02,09,51,14.00
2018,11,02,09,52,14.00
2018,11,02,09,53,14.00
2018,11,02,09,54,14.00
2018,11,02,09,55,14.10
2018,11,02,09,56,16.00
2018,11,02,09,57,16.00
2018,11,02,09,58,16.00
2018,11,02,09,59,16.00
2018,11,02,10,00,16.00
2018,11,02,10,01,16.00
2018,11,02,10,02,16.00
2018,11,02,10,03,16.00
2018,11,02,10,04,16.00
2018,11,02,10,05,16.00
2018,11,02,10,06,16.00
2018,11,02,10,07,16.00
2018,11,02,10,08,16.00
2018,11,02,10,09,16.00
2018,11,02,10,10,16.00
2018,11,02,10,11,16.00
2018,11,02,10,12,16.00
2018,11,02,10,13,16.00
2018,11,02,10,14,16.00
2018,11,02,10,15,17.50
2018,11,02,10,16,18.00
2018,11,02,10,17,18.00
2018,11,02,10,18,18.00
2018,11,02,10,19,18.00
2018,11,02,10,20,18.00
2018,11,02,10,21,18.00
2018,11,02,10,22,18.00
2018,11,02,10,23,18.00
2018,11,02,10,24,18.00
2018,11,02,10,25,18.00
2018,11,02,10,26,18.00
2018,11,02,10,27,18.00
2018,11,02,10,28,18.00
2018,11,02,10,29,18.00
2018,11,02,10,30,18.00
2018,11,02,10,31,18.00
2018,11,02,10,32,18.00
2018,11,02,10,33,18.00
2018,11,02,10,34,18.00
2018,11,02,10,35,18.00
2018,11,02,10,36,18.00
2018,11,02,10,37,18.00
2018,11,02,10,38,18.00
2018,11,02,10,39,18.30
2018,11,02,10,40,19.00
2018,11,02,10,41,19.00
2018,11,02,10,42,19.00
2018,11,02,10,43,19.00
2018,11,02,10,44,19.00
2018,11,02,10,45,19.00
2018,11,02,10,46,19.00
2018,11,02,10,47,19.00
2018,11,02,10,48,19.00
2018,11,02,10,49,19.00
2018,11,02,10,50,19.00
2018,11,02,10,51,19.00
2018,11,02,10,52,19.00
2018,11,02,10,53,19.00
2018,11,02,10,54,19.00
2018,11,02,10,55,19.00
2018,11,02,10,56,19.00
2018,11,02,10,57,19.00
2018,11,02,10,58,19.00
2018,11,02,10,59,19.50
2018,11,02,11,00,23.00
2018,11,02,11,01,22.20
2018,11,02,11,02,19.90
2018,11,02,11,03,19.00
2018,11,02,11,04,19.00
2018,11,02,11,05,19.00
2018,11,02,11,06,19.00
2018,11,02,11,07,19.00
2018,11,02,11,08,19.00
2018,11,02,11,09,19.00
2018,11,02,11,10,19.00
2018,11,02,11,11,20.50
2018,11,02,11,12,21.00
2018,11,02,11,13,21.00
2018,11,02,11,14,21.00
2018,11,02,11,15,21.00
2018,11,02,11,16,21.00
2018,11,02,11,17,21.00
2018,11,02,11,18,21.00
2018,11,02,11,19,21.00
2018,11,02,11,20,21.00
2018,11,02,11,21,21.00
2018,11,02,11,22,21.00
2018,11,02,11,23,21.00
2018,11,02,11,24,21.00
2018,11,02,11,25,21.00
2018,11,02,11,26,21.00
2018,11,02,11,27,21.00
2018,11,02,11,28,21.00
2018,11,02,11,29,21.00
2018,11,02,11,30,21.00
2018,11,02,11,31,21.00
2018,11,02,11,32,21.00
2018,11,02,11,33,21.00
2018,11,02,11,34,21.00
2018,11,02,11,35,21.50
2018,11,02,11,36,23.80
2018,11,02,11,37,25.00
2018,11,02,11,38,25.00
2018,11,02,11,39,28.80
2018,11,02,11,40,38.80
2018,11,02,11,41,61.00
2018,11,02,11,42,49.50
2018,11,02,11,43,36.90
2018,11,02,11,44,33.60
2018,11,02,11,45,45.20
2018,11,02,11,46,60.20
2018,11,02,11,47,56.70
2018,11,02,11,48,51.30
2018,11,02,11,49,35.50
2018,11,02,11,50,25.60
2018,11,02,11,51,25.00
2018,11,02,11,52,25.00
2018,11,02,11,53,25.00
2018,11,02,11,54,25.00
2018,11,02,11,55,25.00
2018,11,02,11,56,25.00
2018,11,02,11,57,25.00
2018,11,02,11,58,25.00
2018,11,02,11,59,25.00
2018,11,02,12,00,25.00
2018,11,02,12,01,25.00
2018,11,02,12,02,25.00
2018,11,02,12,03,25.00
2018,11,02,12,04,25.40
2018,11,02,12,05,26.00
2018,11,02,12,06,26.00
2018,11,02,12,07,26.00
2018,11,02,12,08,26.00
2018,11,02,12,09,26.20
2018,11,02,12,10,28.50
2018,11,02,12,11,30.00
2018,11,02,12,12,32.60
2018,11,02,12,13,43.60
2018,11,02,12,14,49.00
2018,11,02,12,15,57.10
2018,11,02,12,16,60.80
2018,11,02,12,17,54.50
2018,11,02,12,18,60.20
2018,11,02,12,19,63.50
2018,11,02,12,20,46.90
2018,11,02,12,21,39.20
2018,11,02,12,22,41.70
2018,11,02,12,23,52.40
2018,11,02,12,24,60.60
2018,11,02,12,25,48.60
2018,11,02,12,26,38.40
2018,11,02,12,27,35.80
2018,11,02,12,28,32.80
2018,11,02,12,29,36.40
2018,11,02,12,30,54.60
2018,11,02,12,31,132.70
2018,11,02,12,32,220.60
2018,11,02,12,33,305.10
2018,11,02,12,34,346.00
2018,11,02,12,35,355.00
2018,11,02,12,36,358.50
2018,11,02,12,37,360.00
2018,11,02,12,38,361.10
2018,11,02,12,39,350.70
2018,11,02,12,40,327.00
2018,11,02,12,41,327.00
2018,11,02,12,42,327.00
2018,11,02,12,43,253.00
2018,11,02,12,44,185.00
2018,11,02,12,45,218.90
2018,11,02,12,46,290.60
2018,11,02,12,47,257.50
2018,11,02,12,48,192.30
2018,11,02,12,49,193.00
2018,11,02,12,50,289.80
2018,11,02,12,51,299.00
2018,11,02,12,52,241.70
2018,11,02,12,53,82.40
2018,11,02,12,54,73.50
2018,11,02,12,55,69.40
2018,11,02,12,56,69.80
2018,11,02,12,57,104.30
2018,11,02,12,58,103.60
2018,11,02,12,59,54.70
2018,11,02,13,00,35.00
2018,11,02,13,01,39.70
2018,11,02,13,02,37.20
2018,11,02,13,03,26.80
2018,11,02,13,04,25.90
2018,11,02,13,05,37.00
2018,11,02,13,06,37.00
2018,11,02,13,07,36.20
2018,11,02,13,08,36.00
2018,11,02,13,09,29.60
2018,11,02,13,10,27.20
2018,11,02,13,11,34.20
2018,11,02,13,12,32.80
2018,11,02,13,13,32.00
2018,11,02,13,14,32.00
2018,11,02,13,15,32.00
2018,11,02,13,16,30.70
2018,11,02,13,17,30.00
2018,11,02,13,18,30.00
2018,11,02,13,19,32.00
2018,11,02,13,20,32.00
2018,11,02,13,21,32.40
2018,11,02,13,22,34.00
2018,11,02,13,23,35.00
2018,11,02,13,24,35.00
2018,11,02,13,25,35.00
2018,11,02,13,26,32.90
2018,11,02,13,27,31.50
2018,11,02,13,28,30.80
2018,11,02,13,29,32.00
2018,11,02,13,30,30.70
2018,11,02,13,31,30.00
2018,11,02,13,32,30.00
2018,11,02,13,33,30.00
2018,11,02,13,34,30.00
2018,11,02,13,35,30.00
2018,11,02,13,36,29.00
2018,11,02,13,37,28.00
2018,11,02,13,38,28.00
2018,11,02,13,39,28.00
2018,11,02,13,40,28.00
2018,11,02,13,41,28.00
2018,11,02,13,42,28.00
2018,11,02,13,43,28.00
2018,11,02,13,44,28.00
2018,11,02,13,45,28.00
2018,11,02,13,46,28.10
2018,11,02,13,47,30.00
2018,11,02,13,48,30.70
2018,11,02,13,49,38.40
2018,11,02,13,50,63.00
2018,11,02,13,51,80.30
2018,11,02,13,52,74.20
2018,11,02,13,53,55.20
2018,11,02,13,54,44.00
2018,11,02,13,55,45.20
2018,11,02,13,56,53.20
2018,11,02,13,57,65.00
2018,11,02,13,58,71.30
2018,11,02,13,59,65.40
2018,11,02,14,00,54.20
2018,11,02,14,01,45.10
2018,11,02,14,02,39.30
2018,11,02,14,03,35.50
2018,11,02,14,04,35.20
2018,11,02,14,05,38.90
2018,11,02,14,06,45.10
2018,11,02,14,07,55.20
2018,11,02,14,08,63.30
2018,11,02,14,09,65.00
2018,11,02,14,10,66.50
2018,11,02,14,11,71.50
2018,11,02,14,12,75.30
2018,11,02,14,13,78.20
2018,11,02,14,14,80.80
2018,11,02,14,15,75.20
2018,11,02,14,16,67.10
2018,11,02,14,17,59.70
2018,11,02,14,18,53.30
2018,11,02,14,19,49.70
2018,11,02,14,20,47.50
2018,11,02,14,21,40.80
2018,11,02,14,22,39.90
2018,11,02,14,23,39.00
2018,11,02,14,24,39.00
2018,11,02,14,25,39.50
2018,11,02,14,26,42.50
2018,11,02,14,27,46.30
2018,11,02,14,28,65.30
2018,11,02,14,29,84.40
2018,11,02,14,30,96.30
2018,11,02,14,31,100.80
2018,11,02,14,32,101.00
2018,11,02,14,33,98.80
2018,11,02,14,34,97.20
2018,11,02,14,35,95.40
2018,11,02,14,36,100.50
2018,11,02,14,37,104.00
2018,11,02,14,38,103.20
2018,11,02,14,39,103.00
2018,11,02,14,40,98.50
2018,11,02,14,41,91.20
2018,11,02,14,42,83.70
2018,11,02,14,43,78.70
2018,11,02,14,44,77.50
2018,11,02,14,45,79.00
2018,11,02,14,46,73.00
2018,11,02,14,47,62.40
2018,11,02,14,48,58.50
2018,11,02,14,49,53.60
2018,11,02,14,50,51.00
2018,11,02,14,51,51.50
2018,11,02,14,52,53.40
2018,11,02,14,53,53.50
2018,11,02,14,54,53.00
2018,11,02,14,55,53.80
2018,11,02,14,56,61.10
2018,11,02,14,57,69.50
2018,11,02,14,58,71.20
2018,11,02,14,59,66.50
2018,11,02,15,00,58.00
2018,11,02,15,01,53.40
2018,11,02,15,02,53.00
2018,11,02,15,03,59.20
2018,11,02,15,04,67.30
2018,11,02,15,05,71.60
2018,11,02,15,06,75.20
2018,11,02,15,07,74.00
2018,11,02,15,08,72.80
2018,11,02,15,09,72.00
2018,11,02,15,10,70.20
2018,11,02,15,11,69.00
2018,11,02,15,12,68.50
2018,11,02,15,13,65.50
2018,11,02,15,14,64.00
2018,11,02,15,15,63.80
2018,11,02,15,16,60.70
2018,11,02,15,17,62.70
2018,11,02,15,18,65.60
2018,11,02,15,19,70.90
2018,11,02,15,20,74.80
2018,11,02,15,21,76.00
2018,11,02,15,22,74.80
2018,11,02,15,23,74.00
2018,11,02,15,24,75.90
2018,11,02,15,25,79.20
2018,11,02,15,26,81.00
2018,11,02,15,27,81.80
2018,11,02,15,28,82.00
2018,11,02,15,29,76.70
2018,11,02,15,30,70.20
2018,11,02,15,31,67.30
2018,11,02,15,32,68.80
2018,11,02,15,33,66.10
2018,11,02,15,34,61.80
2018,11,02,15,35,60.00
2018,11,02,15,36,61.30
2018,11,02,15,37,60.50
2018,11,02,15,38,60.00
2018,11,02,15,39,56.00
2018,11,02,15,40,56.00
2018,11,02,15,41,55.30
2018,11,02,15,42,55.00
2018,11,02,15,43,56.00
2018,11,02,15,44,53.70
2018,11,02,15,45,53.00
2018,11,02,15,46,51.00
2018,11,02,15,47,51.00
2018,11,02,15,48,51.00
2018,11,02,15,49,50.00
2018,11,02,15,50,50.30
2018,11,02,15,51,51.00
2018,11,02,15,52,52.80
2018,11,02,15,53,53.00
2018,11,02,15,54,53.00
2018,11,02,15,55,53.00
2018,11,02,15,56,53.00
2018,11,02,15,57,53.00
2018,11,02,15,58,53.00
2018,11,02,15,59,53.00
2018,11,02,16,00,52.80
2018,11,02,16,01,51.50
2018,11,02,16,02,53.00
2018,11,02,16,03,52.00
2018,11,02,16,04,51.00
2018,11,02,16,05,51.00
2018,11,02,16,06,50.90
2018,11,02,16,07,49.00
2018,11,02,16,08,49.00
2018,11,02,16,09,48.20
2018,11,02,16,10,47.00
2018,11,02,16,11,47.00
2018,11,02,16,12,47.00
2018,11,02,16,13,46.10
2018,11,02,16,14,46.00
2018,11,02,16,15,46.00
2018,11,02,16,16,45.20
2018,11,02,16,17,44.00
2018,11,02,16,18,42.80
2018,11,02,16,19,42.00
2018,11,02,16,20,42.00
2018,11,02,16,21,42.00
2018,11,02,16,22,42.00
2018,11,02,16,23,42.00
2018,11,02,16,24,42.00
2018,11,02,16,25,42.00
2018,11,02,16,26,40.50
2018,11,02,16,27,40.00
2018,11,02,16,28,40.00
2018,11,02,16,29,40.00
2018,11,02,16,30,40.00
2018,11,02,16,31,40.00
2018,11,02,16,32,40.00
2018,11,02,16,33,40.00
2018,11,02,16,34,40.00
2018,11,02,16,35,40.00
2018,11,02,16,36,39.70
2018,11,02,16,37,39.00
2018,11,02,16,38,39.00
2018,11,02,16,39,37.80
2018,11,02,16,40,37.00
2018,11,02,16,41,35.20
2018,11,02,16,42,33.00
2018,11,02,16,43,32.80
2018,11,02,16,44,31.20
2018,11,02,16,45,30.00
2018,11,02,16,46,28.70
2018,11,02,16,47,28.00
2018,11,02,16,48,28.00
2018,11,02,16,49,26.00
2018,11,02,16,50,26.00
2018,11,02,16,51,26.00
2018,11,02,16,52,26.00
2018,11,02,16,53,26.00
2018,11,02,16,54,26.00
2018,11,02,16,55,26.00
2018,11,02,16,56,25.80
2018,11,02,16,57,25.00
2018,11,02,16,58,25.00
2018,11,02,16,59,25.00
2018,11,02,17,00,25.00
2018,11,02,17,01,25.00
2018,11,02,17,02,23.20
2018,11,02,17,03,23.00
2018,11,02,17,04,22.50
2018,11,02,17,05,21.00
2018,11,02,17,06,20.00
2018,11,02,17,07,19.00
2018,11,02,17,08,18.20
2018,11,02,17,09,18.00
2018,11,02,17,10,17.80
2018,11,02,17,11,16.00
2018,11,02,17,12,16.00
2018,11,02,17,13,16.00
2018,11,02,17,14,16.00
2018,11,02,17,15,16.00
2018,11,02,17,16,16.00
2018,11,02,17,17,15.70
2018,11,02,17,18,14.00
2018,11,02,17,19,14.00
2018,11,02,17,20,13.00
2018,11,02,17,21,12.00
2018,11,02,17,22,12.00
2018,11,02,17,23,12.00
2018,11,02,17,24,11.00
2018,11,02,17,25,11.00
2018,11,02,17,26,10.20
2018,11,02,17,27,9.00
2018,11,02,17,28,9.00
2018,11,02,17,29,7.50
2018,11,02,17,30,7.00
2018,11,02,17,31,7.00
2018,11,02,17,32,7.00
2018,11,02,17,33,6.20
2018,11,02,17,34,5.00
2018,11,02,17,35,5.00
2018,11,02,17,36,5.00
2018,11,02,17,37,0.60
2018,11,02,17,38,0.00
2018,11,02,17,39,0.00
2018,11,02,17,40,0.00
2018,11,02,17,41,0.00
2018,11,02,17,42,0.00